Fitchburg, MA

8:28 AM EDT on August 21, 2019 (GMT -0400)
Fitchburg Municipal

Weather History for KFIT - July, 2019

Change the Weather History Date:

Wednesday, July 17, 2019

  Actual Average (WUND) Record (WUND)
Temperature  
Mean Temperature 81 °F -  
Max Temperature 89 °F - - (-1)
Min Temperature 73 °F - - (-1)
Cooling Degree Days 16    
Growing Degree Days 31 (Base 50)    
Moisture  
Dew Point 69 °F    
Average Humidity 75    
Maximum Humidity 91    
Minimum Humidity 52    
Precipitation  
Precipitation 0.13 in - - ()
Sea Level Pressure  
Sea Level Pressure 29.91 in    
Wind  
Wind Speed 4 mph (West)    
Max Wind Speed 12 mph    
Max Gust Speed 18 mph    
Visibility 9 miles    
Events Rain , Thunderstorm    
Averages and records for this station are not official NWS values.
T = Trace of Precipitation, MM = Missing Value Source: NWS Daily Summary

Daily Weather History Graph

Daily Weather History Graph

Search for Another Location

Airport or City:

Astronomy

Jul. 17, 2019 Rise Set
Actual Time 5:24 AM EDT 8:21 PM EDT
Civil Twilight 4:50 AM EDT 8:54 PM EDT
Nautical Twilight 4:08 AM EDT 9:37 PM EDT
Astronomical Twilight 3:18 AM EDT 10:27 PM EDT
Moon 9:07 PM EDT (7/17) 5:54 AM EDT (7/17)
Length of Visible Light 16h 03m
Length of Day
14h 56m
Waxing Gibbous, 99% of the Moon is Illuminated
Jul 17
Waxing Gibbous
Jul 24
Last Quarter
Jul 31
New
Aug 7
First Quarter
Aug 15
Full

Hourly Weather History & Observations

Time (EDT) Temp. Heat Index Dew Point Humidity Pressure Visibility Wind Dir Wind Speed Gust Speed Precip Events Conditions
12:52 AM 73.0 °F - 64.9 °F 76% 29.96 in 10.0 mi Calm Calm - N/A   Clear
1:52 AM 77.0 °F - 66.0 °F 69% 29.95 in 10.0 mi South 4.6 mph - N/A   Clear
2:52 AM 79.0 °F - 64.9 °F 62% 29.93 in 10.0 mi Variable 6.9 mph - N/A   Clear
3:52 AM 78.1 °F - 64.9 °F 64% 29.93 in 10.0 mi Variable 4.6 mph - N/A   Clear
4:52 AM 77.0 °F - 64.9 °F 66% 29.94 in 10.0 mi West 4.6 mph - N/A   Clear
5:52 AM 73.9 °F - 66.0 °F 76% 29.94 in 10.0 mi Calm Calm - N/A   Scattered Clouds
6:52 AM 75.9 °F - 66.0 °F 71% 29.94 in 10.0 mi Calm Calm - N/A   Mostly Cloudy
7:52 AM 77.0 °F - 66.9 °F 71% 29.94 in 10.0 mi SSW 4.6 mph - N/A   Overcast
8:52 AM 80.1 °F 82.3 °F 66.9 °F 64% 29.94 in 10.0 mi Calm Calm - N/A   Partly Cloudy
9:52 AM 80.1 °F 82.7 °F 68.0 °F 67% 29.94 in 10.0 mi Variable 5.8 mph - N/A   Partly Cloudy
10:52 AM 86.0 °F 90.1 °F 69.1 °F 57% 29.93 in 10.0 mi WSW 11.5 mph 18.4 mph N/A   Clear
11:52 AM 89.1 °F 93.7 °F 69.1 °F 52% 29.92 in 10.0 mi WSW 8.1 mph - N/A   Clear
12:52 PM 84.9 °F 88.8 °F 69.1 °F 59% 29.91 in 10.0 mi West 6.9 mph - N/A   Partly Cloudy
1:52 PM 87.1 °F 92.8 °F 71.1 °F 59% 29.89 in 10.0 mi SSW 6.9 mph - N/A   Clear
2:52 PM 84.9 °F 89.4 °F 70.0 °F 61% 29.88 in 10.0 mi West 5.8 mph - N/A Thunderstorm Partly Cloudy
3:11 PM 82.9 °F 88.8 °F 73.0 °F 72% 29.88 in 4.0 mi SW 6.9 mph - 0.01 in Rain Rain
3:52 PM 81.0 °F 84.9 °F 71.1 °F 72% 29.87 in 10.0 mi North - - 0.01 in Thunderstorm Mostly Cloudy
4:37 PM 75.9 °F - 71.1 °F 85% 29.89 in 4.0 mi NNW 3.5 mph - 0.01 in Rain , Thunderstorm Light Thunderstorms and Rain
4:52 PM 75.9 °F - 71.1 °F 85% 29.88 in 5.0 mi WNW 6.9 mph - 0.03 in Rain , Thunderstorm Light Thunderstorms and Rain
5:02 PM 75.0 °F - 71.1 °F 87% 29.88 in 2.5 mi NW 5.8 mph - 0.03 in Rain , Thunderstorm Thunderstorms and Rain
5:10 PM 75.0 °F - 71.1 °F 87% 29.89 in 8.0 mi West 8.1 mph - 0.03 in Rain , Thunderstorm Light Thunderstorms and Rain
5:19 PM 75.0 °F - 70.0 °F 84% 29.89 in 3.0 mi Variable 6.9 mph - 0.06 in Rain Rain
5:52 PM 73.9 °F - 70.0 °F 87% 29.86 in 10.0 mi Calm Calm - 0.09 in Rain Light Rain
6:52 PM 73.9 °F - 71.1 °F 91% 29.89 in 10.0 mi Calm Calm - 0.00 in   Clear
7:52 PM 73.9 °F - 71.1 °F 91% 29.92 in 10.0 mi Calm Calm - 0.00 in Rain Light Rain
8:52 PM 73.9 °F - 71.1 °F 91% 29.91 in 10.0 mi Calm Calm - 0.00 in   Clear
9:52 PM 73.9 °F - 71.1 °F 91% 29.90 in 10.0 mi Calm Calm - 0.00 in Rain Light Rain
10:52 PM 73.9 °F - 70.0 °F 87% 29.92 in 10.0 mi NNW 5.8 mph - 0.00 in   Clear
11:52 PM 73.9 °F - 70.0 °F 87% 29.93 in 10.0 mi NW 5.8 mph - N/A   Overcast